Radioactive Concentration measured by Seawater Radiation Monitor near Fukushima Daiichi Nuclear Power Station
Date,Time,Cs137(Bq/L),Cs134(Bq/L),Total β(Bq/L)
2016/10/14,00:00,0.59,0.065,ND
2016/10/14,00:10,0.58,0.061,ND
2016/10/14,00:20,0.61,0.056,ND
2016/10/14,00:30,0.60,0.050,ND
2016/10/14,00:40,0.59,0.046,ND
2016/10/14,00:50,0.58,0.047,ND
2016/10/14,01:00,0.60,0.040,ND
2016/10/14,01:10,0.62,0.041,ND
2016/10/14,01:20,0.59,0.039,ND
2016/10/14,01:30,0.58,0.052,ND
2016/10/14,01:40,0.59,0.047,ND
2016/10/14,01:50,0.58,0.054,ND
2016/10/14,02:00,0.57,0.055,ND
2016/10/14,02:10,0.54,0.067,ND
2016/10/14,02:20,0.55,0.069,ND
2016/10/14,02:30,0.56,0.066,ND
2016/10/14,02:40,0.57,0.067,ND
2016/10/14,02:50,0.57,0.054,ND
2016/10/14,03:00,0.58,0.047,ND
2016/10/14,03:10,0.58,0.045,ND
2016/10/14,03:20,0.60,0.047,ND
2016/10/14,03:30,0.61,0.043,ND
2016/10/14,03:40,0.64,0.032,ND
2016/10/14,03:50,0.64,0.047,ND
2016/10/14,04:00,0.67,0.058,ND
2016/10/14,04:10,0.68,0.067,ND
2016/10/14,04:20,0.67,0.065,ND
2016/10/14,04:30,0.68,0.074,ND
2016/10/14,04:40,0.67,0.088,ND
2016/10/14,04:50,0.67,0.093,ND
2016/10/14,05:00,0.68,0.079,ND
2016/10/14,05:10,0.70,0.070,ND
2016/10/14,05:20,0.69,0.074,ND
2016/10/14,05:30,0.69,0.075,ND
2016/10/14,05:40,0.70,0.073,ND
2016/10/14,05:50,0.70,0.072,ND
2016/10/14,06:00,0.71,0.070,ND
2016/10/14,06:10,0.72,0.069,ND
2016/10/14,06:20,0.72,0.069,ND
2016/10/14,06:30,0.71,0.063,ND
2016/10/14,06:40,0.71,0.062,ND
2016/10/14,06:50,0.70,0.054,ND
2016/10/14,07:00,0.68,0.060,ND
2016/10/14,07:10,0.67,0.065,ND
2016/10/14,07:20,0.65,0.066,ND
2016/10/14,07:30,0.61,0.097,ND
2016/10/14,07:40,0.60,0.12,ND
2016/10/14,07:50,0.60,0.12,ND
2016/10/14,08:00,0.59,0.12,ND
2016/10/14,08:10,0.62,0.11,ND
2016/10/14,08:20,0.64,0.11,ND
2016/10/14,08:30,0.65,0.11,ND
2016/10/14,08:40,0.66,0.096,ND
2016/10/14,08:50,0.66,0.091,ND
2016/10/14,09:00,0.71,0.063,ND
2016/10/14,09:10,0.67,0.086,ND
2016/10/14,09:20,0.69,0.062,ND
2016/10/14,09:30,0.70,0.050,ND
2016/10/14,09:40,0.64,0.075,ND
2016/10/14,09:50,0.63,0.068,ND
2016/10/14,10:00,0.59,0.087,ND
2016/10/14,10:10,0.58,0.082,ND
2016/10/14,10:20,0.59,0.059,ND
2016/10/14,10:30,0.58,0.050,ND
2016/10/14,10:40,0.57,0.054,ND
2016/10/14,10:50,0.59,0.045,ND
2016/10/14,11:00,0.63,0.032,ND
2016/10/14,11:10,0.60,0.039,ND
2016/10/14,11:20,0.61,0.038,ND
2016/10/14,11:30,0.62,0.037,ND
2016/10/14,11:40,0.60,0.039,ND
2016/10/14,11:50,0.59,0.050,ND
2016/10/14,12:00,0.56,0.077,ND
2016/10/14,12:10,0.56,0.081,ND
2016/10/14,12:20,0.54,0.082,ND
2016/10/14,12:30,0.50,0.092,ND
2016/10/14,12:40,0.54,0.070,ND
2016/10/14,12:50,0.55,0.068,ND
2016/10/14,13:00,0.53,0.062,ND
2016/10/14,13:10,0.56,0.052,ND
2016/10/14,13:20,0.55,0.059,ND
2016/10/14,13:30,0.58,0.047,ND
2016/10/14,13:40,0.58,0.040,ND
2016/10/14,13:50,0.57,0.036,ND
2016/10/14,14:00,0.57,0.041,ND
2016/10/14,14:10,0.56,0.038,ND
2016/10/14,14:20,0.55,0.039,ND
2016/10/14,14:30,0.53,0.044,ND
2016/10/14,14:40,0.54,0.046,ND
2016/10/14,14:50,0.53,0.054,ND
2016/10/14,15:00,0.53,0.050,ND
2016/10/14,15:10,0.53,0.067,ND
2016/10/14,15:20,0.52,0.068,ND
2016/10/14,15:30,0.56,0.065,ND
2016/10/14,15:40,0.52,0.071,ND
2016/10/14,15:50,0.52,0.066,ND
2016/10/14,16:00,0.53,0.067,ND
2016/10/14,16:10,0.53,0.061,ND
2016/10/14,16:20,0.56,0.054,ND
2016/10/14,16:30,0.55,0.057,ND
2016/10/14,16:40,0.54,0.066,ND
2016/10/14,16:50,0.56,0.062,ND
2016/10/14,17:00,0.57,0.062,ND
2016/10/14,17:10,0.57,0.063,ND
2016/10/14,17:20,0.57,0.060,ND
2016/10/14,17:30,0.58,0.047,ND
2016/10/14,17:40,0.60,0.042,ND
2016/10/14,17:50,0.60,0.043,ND
2016/10/14,18:00,0.62,0.042,ND
2016/10/14,18:10,0.63,0.050,ND
2016/10/14,18:20,0.64,0.060,ND
2016/10/14,18:30,0.64,0.067,ND
2016/10/14,18:40,0.65,0.065,ND
2016/10/14,18:50,0.68,0.063,ND
2016/10/14,19:00,0.69,0.075,ND
2016/10/14,19:10,0.69,0.085,ND
2016/10/14,19:20,0.68,0.079,ND
2016/10/14,19:30,0.67,0.085,ND
2016/10/14,19:40,0.67,0.090,ND
2016/10/14,19:50,0.66,0.089,ND
2016/10/14,20:00,0.63,0.085,ND
2016/10/14,20:10,0.61,0.075,ND
2016/10/14,20:20,0.62,0.081,ND
2016/10/14,20:30,0.61,0.071,ND
2016/10/14,20:40,0.59,0.071,ND
2016/10/14,20:50,0.58,0.074,ND
2016/10/14,21:00,0.61,0.067,ND
2016/10/14,21:10,0.63,0.067,ND
2016/10/14,21:20,0.62,0.067,ND
2016/10/14,21:30,0.61,0.072,ND
2016/10/14,21:40,0.62,0.070,ND
2016/10/14,21:50,0.61,0.075,ND
2016/10/14,22:00,0.60,0.071,ND
2016/10/14,22:10,0.60,0.071,ND
2016/10/14,22:20,0.61,0.061,ND
2016/10/14,22:30,0.64,0.055,ND
2016/10/14,22:40,0.64,0.053,ND
2016/10/14,22:50,0.65,0.055,ND
2016/10/14,23:00,0.64,0.052,ND
2016/10/14,23:10,0.63,0.050,ND
2016/10/14,23:20,0.63,0.086,ND
2016/10/14,23:30,0.65,0.050,ND
2016/10/14,23:40,0.64,0.046,ND
2016/10/14,23:50,0.64,0.040,ND
